Temp
25 25 25 25 25 25 25 25 25 25 25 26 26 26 26 26 26 26 26 26 26 26 26 26 26 26 26 25 25 25 25 25 25 25 25 25 25 25 25 24 24 25 25 25 25 25 25 25 26 26 26 26 26 26 27 27 27 27 27 27 27 27 27 27 26 26 27 27 27 28 28 28 28 28 27 27 27 27 27 27 27 27 27 27 27
25 25 25 25 25 25 25 25 25 25 25 25 25 26 26 26 26 26 26 26 26 26 26 26 26 26 26 25 25 25 25 25 25 25 25 25 25 25 25 24 24 25 25 25 25 25 25 25 25 26 26 26 26 26 26 26 27 27 27 27 27 27 27 27 27 26 27 27 28 28 28 28 28 28 27 27 27 27 27 27 27 27 27 27 27
25 25 25 25 25 25 25 25 25 25 25 25 25 25 26 26 26 26 26 26 26 26 26 26 26 26 26 26 25 25 25 25 25 25 25 25 25 25 25 25 25 25 25 25 25 25 25 26 26 26 26 26 26 26 26 26 26 26 27 27 27 27 27 27 27 27 27 27 28 28 27 27 27 27 27 27 28 28 28 27 27 27 27 27 27
24 24 25 25 25 25 25 25 25 25 25 25 25 25 26 26 26 26 26 26 26 26 26 26 26 26 26 26 26 26 25 25 25 25 25 25 25 25 25 25 25 25 25 25 25 25 26 26 26 26 26 26 26 26 26 26 26 26 26 27 26 27 27 27 27 27 27 27 27 27 27 27 27 27 27 27 28 28 27 27 27 27 27 27 27
23 22 22 23 24 24 24 25 25 25 25 25 25 25 26 26 26 26 26 26 27 26 26 26 26 26 26 26 26 26 26 26 26 25 26 26 26 26 25 25 26 25 26 25 25 26 26 26 26 26 26 26 26 26 26 26 26 26 26 27 27 27 27 27 27 27 27 27 27 27 27 27 27 27 27 27 27 27 27 27 27 27 27 27 27
23 22 22 22 21 21 22 24 25 25 25 25 25 26 26 26 26 26 27 27 27 27 27 27 27 27 26 26 26 26 26 26 26 26 26 26 26 26 26 26 26 26 26 26 26 26 26 26 26 26 26 26 26 26 26 26 26 26 26 26 27 27 27 27 27 27 27 27 27 27 27 27 27 27 27 27 27 27 27 27 27 27 27 27 27
22 22 22 22 21 21 22 24 25 25 25 25 25 26 26 26 26 26 27 27 27 27 27 27 27 27 27 27 27 27 27 26 26 26 26 26 26 26 26 26 26 26 26 26 26 26 26 26 26 26 26 26 26 26 26 26 26 26 26 26 27 27 27 27 27 27 27 27 27 27 27 27 27 27 27 27 27 27 27 27 27 27 27 27 27
22 22 22 21 21 22 22 22 23 25 25 25 25 25 26 26 26 26 27 27 27 27 27 27 27 27 27 27 27 27 27 27 27 27 27 27 26 26 26 26 26 26 26 26 26 26 26 26 26 26 26 26 26 26 26 26 26 26 26 27 26 27 27 27 27 27 27 27 27 27 27 27 27 27 27 27 27 27 27 26 27 27 27 27 27
21 22 21 20 21 22 21 21 23 25 25 25 25 25 26 26 26 26 26 27 27 27 27 27 27 27 27 27 27 27 27 27 27 27 27 27 27 27 27 27 27 27 26 26 26 26 26 26 26 26 26 26 26 26 27 27 27 27 27 27 27 27 27 27 27 27 27 27 27 27 26 26 27 27 27 27 27 27 27 26 26 27 27 27 27
21 21 21 21 21 21 21 22 23 24 25 25 25 25 25 26 26 26 26 26 27 27 27 27 27 27 27 27 27 27 27 27 27 27 27 27 27 27 27 27 27 27 27 26 26 26 26 27 27 27 27 27 27 27 27 27 27 27 27 27 27 27 27 27 27 27 27 26 26 26 26 26 27 27 27 27 27 27 26 26 26 27 27 27 27
21 21 21 21 21 21 21 22 23 23 24 25 25 25 25 26 26 26 26 26 26 26 27 27 27 27 27 27 27 27 27 28 28 28 28 27 27 27 27 27 27 27 27 26 26 26 26 27 27 27 27 27 27 27 27 27 27 27 27 27 27 27 27 27 27 27 26 26 26 26 26 26 27 27 27 27 27 26 26 26 26 26 26 26 26
20 20 21 21 21 21 21 22 22 23 23 23 24 24 25 25 25 26 26 26 26 26 26 26 27 27 27 27 27 27 27 27 28 28 28 28 28 27 27 27 27 27 27 27 27 26 26 26 27 27 27 27 27 27 27 27 28 28 28 28 28 28 27 27 27 27 27 26 26 26 26 26 27 27 27 27 27 26 26 26 26 26 26 26 26
20 20 20 20 21 21 21 21 21 22 22 22 23 23 23 24 24 24 25 25 26 26 26 26 26 27 27 27 27 27 27 27 27 27 28 28 28 28 27 27 27 27 27 27 27 27 27 27 27 27 27 27 27 27 27 27 27 28 28 28 28 28 28 27 27 27 27 26 26 26 27 27 27 27 28 27 27 26 26 26 26 26 26 26 26
19 20 20 20 20 20 20 21 21 21 21 22 22 22 22 23 23 23 23 24 25 25 26 26 26 26 26 27 27 27 27 27 27 27 27 28 28 28 28 27 27 27 27 27 27 27 27 27 27 27 27 27 27 27 27 27 27 28 28 28 28 28 28 28 28 28 27 27 26 26 27 27 27 28 28 28 27 26 26 26 26 26 26 26 26
20 20 20 20 20 20 20 21 21 21 21 21 21 21 21 22 22 22 22 23 23 24 24 25 25 26 26 26 26 26 27 27 27 27 27 27 27 27 27 27 27 27 27 27 27 27 27 27 27 27 27 27 28 27 27 27 27 28 28 28 28 28 28 28 28 28 28 28 27 27 27 27 27 28 28 27 27 27 26 26 25 25 25 25 25
20 20 20 20 20 20 20 20 20 21 21 21 21 21 21 21 21 21 22 22 22 23 23 23 24 25 25 25 25 26 26 27 27 27 27 27 27 27 27 27 27 27 27 27 27 27 27 27 27 27 27 28 28 28 28 28 28 28 28 28 28 28 28 28 28 28 28 28 28 28 28 28 28 28 28 27 27 27 26 25 24 24 24 24 24
20 20 20 20 20 20 20 20 20 20 20 21 21 21 21 21 21 21 21 21 21 22 22 22 23 23 24 24 25 25 26 26 26 26 26 26 26 27 27 27 27 27 27 27 26 26 26 26 26 27 27 27 28 28 28 28 28 28 27 27 28 27 28 28 28 28 28 28 28 28 28 28 28 27 27 27 27 27 26 24 24 24 24 23 23
20 20 19 19 20 20 20 20 20 20 20 20 20 21 21 21 21 21 21 21 21 21 21 22 22 22 23 23 24 24 25 25 25 25 26 26 26 26 27 27 27 27 27 27 27 26 26 26 26 26 26 27 27 28 28 28 27 28 28 27 27 27 27 28 27 27 27 27 27 27 27 27 27 27 27 27 27 27 26 25 25 25 23 23 23
19 19 19 19 20 20 20 20 20 20 20 21 21 21 21 21 21 21 21 21 21 21 21 21 21 22 22 22 23 23 24 24 24 24 25 25 25 25 26 26 26 26 26 26 26 26 27 27 27 26 26 26 27 27 27 27 27 27 27 27 26 26 27 27 27 27 27 27 27 27 27 27 27 27 27 27 27 26 26 26 26 25 23 23 23
19 19 19 19 19 20 20 20 20 20 20 21 21 21 21 21 21 21 21 21 21 21 21 21 21 21 21 22 22 22 23 23 23 24 24 24 24 25 24 24 25 25 25 25 25 26 26 26 26 26 26 26 26 27 27 27 27 27 27 26 26 26 27 26 26 26 26 26 26 26 26 26 26 26 26 26 26 26 26 26 26 26 25 24 23
19 19 19 19 19 19 20 20 20 20 20 20 21 21 21 21 21 21 21 20 20 21 21 21 21 21 21 21 21 21 22 22 22 23 23 23 23 24 24 24 24 24 24 24 24 24 25 25 25 26 26 26 26 26 26 27 27 27 27 27 27 27 27 26 26 26 26 26 26 26 26 26 26 26 26 26 26 26 26 26 26 26 26 25 24
19 19 19 19 19 19 20 20 20 20 20 20 20 21 21 21 21 21 21 20 20 20 21 21 21 21 21 21 21 21 21 21 22 22 22 22 22 22 23 23 23 23 23 23 24 24 24 24 24 25 25 25 25 25 26 26 26 26 26 27 27 27 26 26 26 25 25 25 25 25 25 25 25 25 25 26 26 26 26 26 26 26 26 26 25
18 18 18 18 19 19 19 19 20 20 20 20 20 20 20 21 21 21 20 20 20 20 20 20 21 21 21 21 21 21 21 21 21 21 21 22 22 22 22 22 22 22 22 22 23 23 23 23 23 23 24 24 24 25 25 25 25 26 26 26 26 26 26 26 26 25 24 24 23 24 24 24 24 25 25 25 25 25 26 26 26 26 26 26 26
18 18 18 18 18 19 19 19 19 19 19 19 19 20 20 20 20 20 20 20 20 20 20 20 20 20 20 20 21 21 21 21 21 21 21 21 21 21 21 21 22 22 22 22 22 22 22 22 23 23 23 23 24 24 24 24 25 25 25 25 25 25 25 25 25 25 24 23 23 23 23 24 24 24 24 25 25 25 25 25 25 25 25 25 25
17 17 17 18 18 18 18 18 19 19 19 19 19 19 19 19 19 20 19 19 19 19 19 19 19 19 19 19 20 20 20 20 20 21 21 21 21 21 20 21 21 21 21 21 22 22 22 22 22 22 22 22 23 23 23 24 24 24 24 24 24 24 24 24 24 24 24 24 23 23 23 24 24 24 24 24 25 25 24 24 24 25 25 25 25
16 16 17 17 17 17 18 18 18 19 18 18 18 19 19 19 19 19 19 19 19 19 19 19 19 19 19 19 19 19 19 19 19 20 20 20 20 20 20 20 20 20 20 20 21 21 21 21 21 21 22 22 22 23 23 23 23 23 23 23 23 23 23 23 23 23 24 24 24 24 24 24 24 24 24 24 24 24 24 24 24 24 24 24 24
16 16 16 16 17 17 17 18 18 18 18 18 18 18 18 18 18 18 18 18 18 18 18 18 18 18 18 19 19 19 19 19 19 19 20 20 20 20 20 20 20 20 20 20 20 20 20 20 20 20 21 21 21 22 22 23 23 23 23 23 23 23 23 23 23 23 23 23 23 24 24 24 24 24 24 23 23 24 24 24 24 24 24 24 24
16 16 16 16 16 17 17 17 17 18 18 18 18 18 18 18 18 18 18 18 18 18 18 18 18 18 18 18 18 18 18 18 18 18 19 19 19 19 19 19 19 20 20 20 20 20 20 20 20 20 20 20 20 21 21 21 22 22 23 23 23 24 24 24 23 23 23 23 23 23 23 23 23 23 23 23 23 23 24 24 23 23 23 23 23
16 16 16 16 16 16 16 17 17 17 18 18 18 18 18 18 18 18 18 18 17 17 17 17 17 17 17 17 17 17 17 18 18 18 19 19 19 19 19 19 19 19 19 20 20 20 20 20 20 20 20 19 19 19 20 20 20 21 22 22 23 23 24 23 23 23 23 22 22 22 22 22 22 23 22 22 23 23 23 23 23 23 23 22 22
15 15 16 16 16 16 16 16 16 17 17 18 18 18 18 18 17 17 17 17 17 17 17 17 17 17 17 18 18 17 17 18 18 19 19 19 19 19 19 19 19 19 19 19 20 20 20 20 20 20 19 19 19 19 19 20 20 20 20 21 21 22 22 22 22 23 23 22 22 22 22 22 22 22 22 22 22 23 23 23 23 23 22 22 22
15 15 15 15 16 16 16 16 16 16 17 17 17 17 17 17 17 17 17 17 17 17 17 17 17 18 18 18 18 18 18 18 18 19 19 19 19 19 19 19 19 19 19 20 20 20 20 19 19 19 19 19 19 19 19 20 20 20 20 20 21 21 21 21 22 22 22 22 22 22 22 22 22 22 22 22 22 22 22 22 22 22 22 22 22
14 14 15 15 15 16 16 16 16 16 16 17 17 16 16 16 16 16 16 17 17 17 17 17 18 18 17 17 17 17 18 18 18 19 19 19 18 18 18 18 19 19 19 19 19 19 19 18 18 18 19 19 19 19 20 20 20 20 20 20 20 21 21 21 22 22 22 22 22 22 22 22 22 22 22 22 22 22 22 22 22 22 22 22 22
13 14 14 15 15 15 16 16 16 16 16 16 16 16 16 15 15 16 16 16 17 17 17 17 17 17 17 17 17 17 17 17 18 18 18 18 18 18 18 18 18 18 19 18 17 17 18 18 18 18 18 18 19 19 19 20 20 20 20 20 20 21 21 21 22 22 22 22 22 23 23 22 22 22 22 22 22 21 21 21 22 22 21 21 21
13 13 13 14 14 15 15 15 15 15 15 15 15 15 15 15 15 15 15 15 16 16 17 17 17 16 16 17 17 16 16 16 17 17 17 17 17 17 17 17 17 17 17 17 17 17 17 18 18 18 18 18 18 19 19 19 20 20 20 20 20 20 21 21 21 22 22 22 22 23 23 23 22 22 21 21 21 21 21 21 21 21 21 21 21
12 13 13 13 13 14 14 14 15 15 15 15 15 15 15 15 15 15 15 15 15 15 15 16 16 16 16 16 16 16 16 16 16 16 16 16 16 16 16 16 16 16 16 16 16 16 16 16 16 16 16 16 17 17 18 18 19 19 20 20 20 20 20 20 21 21 21 22 22 22 23 23 22 22 21 21 21 21 21 21 21 21 21 21 21
12 12 12 12 13 13 13 14 14 14 14 14 14 15 15 15 15 15 15 15 15 15 15 15 15 15 15 15 15 15 16 16 15 15 16 16 15 15 15 15 14 14 14 14 14 14 14 14 14 14 14 14 14 15 15 16 17 17 18 19 19 20 20 20 21 21 21 21 22 22 22 22 22 22 22 21 21 21 21 21 21 21 21 21 21
11 11 11 12 12 12 13 13 13 14 14 14 14 14 14 14 14 14 14 15 15 14 14 15 15 15 15 15 15 15 15 15 15 15 15 15 15 14 14 13 13 13 13 13 12 12 12 12 12 12 12 12 12 13 13 14 14 15 16 17 17 18 19 20 20 21 21 21 21 21 21 21 21 22 21 21 21 21 21 21 21 21 21 21 21
11 11 11 11 11 12 12 12 12 13 13 13 13 13 13 14 14 14 14 14 14 14 14 14 14 14 14 14 14 14 14 14 15 15 14 14 14 14 13 13 13 12 12 12 11 11 11 11 10 10 10 10 11 11 12 12 13 13 14 15 15 16 18 18 19 20 20 21 21 21 20 20 21 21 21 21 20 20 20 20 20 20 21 21 20
10 10 10 11 11 11 11 11 12 12 12 12 12 12 13 13 13 13 13 13 13 13 13 13 13 14 14 14 14 14 14 14 14 14 14 13 13 13 13 13 12 12 11 11 11 11 10 10 9 9 9 9 9 10 10 11 11 12 12 13 14 15 16 17 18 18 19 20 20 20 20 20 20 20 20 20 20 20 20 20 20 20 20 20 20
9 10 10 10 10 11 11 11 11 11 12 12 12 12 12 12 12 12 12 12 12 12 13 13 13 13 13 13 13 13 13 13 13 13 13 13 13 12 12 12 12 11 11 11 10 10 10 9 9 9 8 8 9 9 9 10 10 11 11 11 12 12 13 14 16 17 17 18 19 19 19 20 20 20 20 20 20 20 20 20 20 20 20 20 20
9 9 9 9 10 10 10 10 10 11 11 11 11 11 11 11 11 11 11 11 12 12 12 12 12 12 12 13 13 13 13 13 13 13 12 12 12 12 12 11 11 11 11 10 10 9 9 9 9 9 8 8 8 8 9 9 9 10 10 10 10 11 11 12 13 14 16 17 18 18 18 19 19 19 20 20 20 20 20 20 20 20 20 20 20
8 8 9 9 9 9 9 9 10 10 10 10 10 11 11 11 11 11 11 11 11 11 11 11 12 12 12 12 12 12 12 12 12 12 12 12 12 12 11 11 11 11 10 10 9 9 9 8 8 8 8 8 8 8 8 8 8 9 9 9 9 10 10 11 11 12 13 15 16 17 17 18 18 18 18 19 19 20 20 20 20 20 20 20 20
8 8 8 8 8 8 8 9 9 9 9 10 10 10 10 10 10 10 10 11 11 11 11 11 11 11 11 12 12 12 12 12 12 12 12 11 11 11 11 11 11 10 10 9 9 9 8 8 8 8 7 7 7 7 7 7 8 8 8 8 8 9 9 9 10 10 11 12 13 14 16 17 17 17 17 17 17 18 18 19 19 20 20 20 20
7 7 7 7 8 8 8 8 8 9 9 9 9 10 10 10 10 10 10 10 10 10 10 11 11 11 11 11 11 11 11 11 11 11 11 11 11 11 11 10 10 9 9 9 9 8 8 7 7 7 7 7 7 7 7 7 7 7 7 7 7 8 8 9 9 9 10 10 11 12 13 14 16 16 17 17 16 16 16 17 18 19 19 19 19
6 6 7 7 7 7 8 8 8 8 8 9 9 9 9 9 9 9 10 10 10 10 10 10 10 10 10 11 11 11 11 10 10 10 10 10 10 10 10 9 9 9 8 8 8 8 7 7 7 7 7 6 6 6 7 7 7 7 7 7 7 7 7 8 8 8 9 9 10 10 11 11 12 14 15 16 16 15 15 15 16 17 18 18 19
6 6 6 6 7 7 7 8 8 8 8 8 8 8 8 8 8 9 9 9 9 9 9 9 10 10 10 10 10 10 10 10 10 10 10 10 10 10 9 8 8 8 8 7 7 7 7 7 6 6 6 6 6 6 6 6 7 7 7 7 7 7 7 7 8 8 8 8 9 9 10 10 10 11 13 14 14 13 13 14 14 15 16 17 18
6 6 6 6 7 7 7 7 7 7 7 7 7 7 7 8 8 8 8 8 8 9 9 9 9 9 9 9 9 9 9 9 9 9 9 9 9 9 8 8 8 7 7 7 6 6 6 6 6 6 6 6 6 6 6 6 6 7 7 6 7 7 7 7 7 8 8 8 8 9 9 9 10 10 11 11 11 11 12 12 13 13 14 15 16
5 5 6 6 6 6 6 6 6 6 6 6 6 6 6 7 7 7 7 7 8 8 8 8 8 8 8 8 8 8 8 8 8 8 8 8 8 8 7 7 7 7 7 6 6 6 6 6 6 5 5 5 5 6 6 6 6 7 7 7 7 7 7 7 7 7 8 8 8 9 9 9 10 10 10 10 11 11 11 12 12 13 13 14 14
5 5 5 5 5 5 5 5 5 5 5 5 5 5 5 6 6 6 6 7 7 7 7 7 7 7 7 7 7 7 7 7 7 8 8 7 7 7 7 6 6 6 6 6 5 5 5 5 5 5 5 5 5 5 6 6 6 6 6 6 6 6 7 7 7 7 8 8 9 9 9 9 9 10 10 10 10 11 11 12 12 13 13 13 14
5 5 5 5 5 5 4 4 4 4 4 4 4 4 5 5 5 5 6 6 6 6 6 6 6 6 6 6 7 7 7 7 7 7 7 6 6 6 6 5 5 5 5 5 5 5 5 5 5 5 5 5 5 5 5 6 6 5 5 6 6 6 7 7 7 8 8 9 9 9 9 9 10 10 10 11 11 11 11 12 12 12 13 13 14
4 4 4 4 4 4 3 4 4 3 3 4 4 4 4 4 5 5 5 5 5 5 5 5 5 6 6 6 6 6 6 6 6 6 6 6 5 5 5 5 4 4 4 4 4 4 4 4 4 4 4 4 5 5 5 5 5 5 5 6 6 7 7 7 8 8 9 9 9 9 9 9 10 10 10 11 11 11 11 12 12 12 13 13 13
Height
836 837 839 840 842 843 845 847 849 851 852 853 854 855 856 857 858 859 860 861 861 861 862 862 862 864 865 866 867 867 868 869 870 871 871 872 872 873 874 874 875 875 876 876 876 876 876 875 876 876 876 876 876 876 876 876 876 876 876 876 876 876 876 876 875 874 873 874 874 873 873 872 872 871 871 870 869 868 868 868 867 866 865 864 864
835 837 839 840 841 842 844 845 847 849 851 852 853 854 854 855 856 857 858 859 860 860 861 861 861 862 863 864 865 866 867 868 869 870 870 870 871 872 873 873 874 874 874 875 875 875 875 874 875 875 875 875 875 875 875 876 876 876 876 876 876 876 875 875 875 874 872 872 872 872 872 872 871 870 870 869 869 868 868 867 866 865 865 864 863
832 835 837 839 840 841 843 844 845 847 848 850 851 852 853 853 854 855 856 857 858 859 860 860 861 861 862 863 864 865 866 867 868 868 869 869 869 870 871 871 872 872 873 873 873 874 874 873 873 874 874 874 874 874 875 875 875 875 875 875 875 875 875 875 874 873 872 871 871 871 870 870 870 869 869 868 868 867 866 866 865 864 863 863 862
834 836 837 838 839 840 842 843 844 845 846 847 849 850 851 852 853 853 853 855 856 857 858 859 859 860 860 861 862 863 864 865 866 867 867 867 868 868 869 870 870 870 871 871 871 872 872 872 872 872 873 873 873 873 873 874 874 874 874 874 874 874 874 874 873 873 872 871 870 870 869 869 868 868 868 867 866 866 865 864 863 863 862 861 860
835 838 839 839 839 840 842 843 844 844 844 845 846 848 849 850 851 851 852 853 854 855 856 857 858 858 859 859 860 861 862 862 863 864 865 865 866 866 867 867 868 868 868 869 869 870 870 870 870 871 871 871 871 872 872 872 873 873 873 873 873 873 873 873 872 872 871 870 869 869 868 868 867 866 866 866 865 864 863 863 862 861 861 860 859
834 837 839 839 841 844 846 845 844 843 843 843 844 845 847 848 849 850 851 851 852 853 854 855 856 856 857 857 858 859 859 860 861 861 862 863 863 864 864 865 865 866 866 867 867 868 868 868 869 869 870 870 870 870 871 871 871 872 872 872 872 872 872 871 871 871 870 869 868 868 867 867 866 865 865 865 864 862 862 861 860 860 860 859 858
834 836 837 839 842 846 846 844 842 842 842 842 842 843 844 845 846 847 849 850 850 851 852 853 854 854 855 855 855 856 857 857 858 858 859 860 860 861 861 862 863 863 864 864 865 866 866 866 867 867 867 868 868 868 869 869 870 870 870 870 870 870 870 870 870 869 869 868 867 866 866 865 865 863 863 863 862 861 860 859 858 858 858 857 856
834 834 837 840 842 843 843 842 840 840 840 840 840 841 842 843 844 845 846 847 848 849 849 850 850 851 852 852 853 853 854 854 855 855 856 857 857 858 859 859 860 861 861 862 862 863 864 864 864 865 865 865 866 866 867 867 867 867 868 868 868 869 868 868 868 868 867 866 866 865 864 864 863 862 862 861 860 859 859 858 857 856 856 855 854
833 834 837 841 842 842 843 842 838 837 837 837 838 839 840 842 842 843 844 845 846 846 847 847 847 848 849 849 850 851 851 852 852 853 853 854 855 855 856 857 858 858 859 859 860 861 861 862 862 862 863 863 863 864 864 864 865 865 865 866 866 866 866 866 866 866 865 865 864 863 863 862 861 860 860 859 858 857 857 857 855 854 854 853 852
833 836 838 840 842 842 841 839 836 835 835 836 837 838 839 840 840 841 842 843 844 844 845 845 845 845 846 847 847 848 849 849 850 851 851 852 853 853 853 854 855 856 856 857 858 858 859 859 859 860 860 861 861 862 862 862 862 862 862 863 863 864 864 864 864 863 863 862 861 861 860 859 859 858 857 856 856 856 855 855 854 852 852 851 850
834 837 838 838 840 839 838 836 835 835 835 835 836 837 837 838 838 839 840 841 842 842 842 843 843 843 844 844 845 846 846 847 847 848 849 849 850 851 851 852 852 853 854 854 855 855 856 857 857 857 858 858 859 859 859 859 859 859 860 860 860 861 860 861 861 860 860 860 859 859 858 857 855 855 855 854 854 854 853 853 852 851 850 849 848
836 837 836 836 837 836 835 834 834 834 834 835 835 835 836 836 836 837 837 838 839 840 840 840 840 841 841 842 843 843 844 844 845 846 846 847 847 848 848 849 850 850 851 851 852 852 853 853 854 854 855 855 856 856 856 856 856 856 857 857 857 857 857 857 857 857 857 857 856 856 855 854 853 852 852 852 851 851 851 851 850 850 849 848 847
838 837 835 835 835 835 834 834 834 834 834 834 834 834 834 834 834 835 835 836 837 837 838 838 838 839 839 839 840 841 841 842 842 843 844 844 845 846 846 847 847 848 848 848 849 849 849 850 850 851 851 852 853 853 853 853 853 854 854 854 854 854 854 854 854 854 854 853 853 852 851 851 850 849 849 849 849 849 848 848 848 847 847 846 845
840 839 837 837 837 836 834 833 833 834 834 834 834 833 833 833 833 833 833 834 834 835 835 836 836 837 837 837 838 838 839 839 840 840 841 841 843 843 844 845 845 845 846 846 847 847 847 847 847 847 848 848 849 850 850 850 850 850 850 850 850 850 850 850 850 850 850 850 849 848 848 848 847 846 847 847 847 847 846 845 845 845 845 844 843
840 840 839 838 838 838 836 835 834 834 833 834 834 833 833 832 832 832 832 832 832 832 833 833 833 834 834 835 835 835 836 837 837 837 838 838 840 841 841 842 842 842 843 843 844 844 844 844 844 844 844 845 845 846 846 847 847 847 847 846 846 846 846 846 846 847 847 846 846 845 844 845 844 843 844 845 844 844 844 843 843 843 842 841 840
840 840 839 839 839 838 838 837 836 834 834 834 834 833 833 832 832 832 832 831 831 831 830 831 831 831 831 832 832 832 833 834 834 834 835 836 837 838 838 838 838 839 839 839 840 841 841 842 842 842 841 841 842 843 843 843 843 843 843 843 842 842 842 842 843 844 844 843 843 842 842 842 842 842 842 842 842 841 841 841 841 840 839 838 837
840 839 839 838 838 838 837 836 835 834 833 833 833 833 833 832 832 831 831 831 830 829 829 829 829 829 829 829 829 829 830 830 831 832 833 834 834 834 834 834 834 834 834 835 836 837 838 838 839 839 839 838 839 839 840 840 840 840 839 839 838 838 837 838 839 840 840 840 840 839 839 839 839 839 839 839 839 839 838 837 837 837 836 835 834
840 839 839 838 838 837 837 836 835 834 833 833 833 832 832 831 831 830 829 829 829 828 828 827 827 827 827 827 827 827 827 828 830 830 831 832 832 832 832 831 831 831 830 831 832 833 834 834 835 835 835 835 835 836 836 837 836 835 835 835 834 833 833 834 835 835 835 836 836 836 836 836 836 835 835 835 835 836 834 833 832 833 832 832 830
840 839 839 838 838 837 836 836 835 834 834 833 832 832 831 830 830 829 828 828 828 828 827 826 826 825 825 825 825 825 826 827 828 828 828 829 830 830 830 830 829 828 828 828 829 829 830 830 831 831 831 831 831 832 833 833 832 832 832 832 831 830 830 831 832 831 832 832 832 832 831 831 831 831 831 831 831 831 830 828 828 828 828 827 826
840 840 839 838 838 837 836 836 835 834 834 833 832 832 832 830 830 829 828 828 828 827 826 826 825 824 824 824 824 824 825 826 826 826 826 827 827 828 828 828 827 826 826 826 826 826 826 826 827 828 828 827 828 828 829 829 829 828 829 829 827 826 827 829 829 829 829 828 828 827 827 827 827 827 826 826 826 826 825 824 824 824 823 822 822
839 839 839 838 838 837 836 836 835 834 834 833 832 832 831 830 830 829 829 829 828 827 826 825 824 823 822 822 823 823 824 824 824 825 825 826 826 826 826 825 825 825 824 824 823 823 822 823 823 824 825 825 825 825 825 826 826 825 825 824 823 823 824 825 826 826 825 824 824 823 823 823 823 822 822 821 821 821 821 820 820 820 819 818 818
839 838 838 837 837 836 836 835 834 833 833 832 831 830 830 829 829 828 829 829 828 826 825 823 822 821 821 821 822 822 823 823 822 823 823 824 824 824 824 823 823 823 822 821 821 820 820 821 820 821 822 822 822 822 822 822 822 821 820 820 820 821 822 822 822 822 822 821 820 820 819 819 818 817 817 816 816 817 817 816 816 815 815 814 814
839 838 838 837 837 836 836 835 834 833 833 832 831 830 829 828 828 827 828 828 827 826 824 823 822 821 821 821 821 821 822 821 821 821 821 821 822 822 821 821 821 821 819 818 818 819 819 819 819 819 819 819 819 819 819 819 819 818 817 817 818 818 818 818 818 818 817 817 817 816 815 815 814 813 812 812 812 813 813 812 812 812 811 810 810
840 839 838 838 837 836 836 835 835 834 833 833 832 831 830 829 828 828 828 827 826 826 825 824 824 823 823 821 820 820 821 821 821 820 820 819 819 818 818 818 817 817 817 816 816 816 816 817 817 816 816 816 816 816 815 815 815 814 814 814 814 815 815 814 814 814 813 813 813 812 811 810 810 808 808 808 808 808 809 809 808 808 807 806 805
840 840 839 838 837 837 836 836 835 835 834 834 833 832 831 830 829 829 828 828 827 826 826 826 825 824 824 823 821 820 821 821 821 820 819 818 817 816 816 815 815 814 813 813 813 814 814 814 814 813 813 813 813 812 812 812 811 811 811 811 810 811 811 811 811 810 809 808 807 806 805 805 805 804 804 804 804 804 804 804 803 803 803 801 800
841 840 839 838 837 837 836 836 836 835 834 834 833 832 832 831 830 829 828 828 827 827 826 826 825 825 824 823 822 821 821 821 820 819 818 817 816 815 814 813 813 812 811 810 810 811 811 810 810 810 809 809 809 808 808 808 808 808 807 807 807 807 808 808 808 807 805 804 802 801 800 799 799 799 799 800 800 800 800 799 798 798 797 796 794
840 839 839 838 837 836 836 835 835 835 834 834 833 833 832 831 830 830 829 828 828 827 827 826 825 825 824 823 822 821 819 819 819 818 817 815 814 813 812 811 811 810 809 809 808 808 808 807 807 807 806 806 805 805 804 804 804 803 803 804 804 804 804 804 803 802 801 799 797 796 795 795 795 795 795 795 795 795 795 794 793 792 792 792 790
840 839 838 837 836 835 835 834 834 834 833 833 833 832 831 831 831 830 830 829 828 827 827 826 825 825 824 822 821 820 818 817 817 817 816 814 813 812 811 810 810 809 808 807 806 806 805 805 805 804 804 803 802 802 801 800 800 799 799 799 799 799 799 799 798 796 795 793 792 791 790 790 790 790 791 791 790 790 790 790 789 788 789 790 788
839 838 837 836 836 835 834 833 832 832 832 832 831 832 831 831 831 830 830 830 829 828 827 826 825 825 824 823 822 820 817 816 816 816 816 814 813 812 810 810 809 808 807 806 804 803 802 802 802 802 801 801 800 799 799 798 798 797 796 796 795 795 794 794 792 790 789 788 787 786 786 786 786 786 787 787 785 785 786 786 785 785 786 786 784
838 838 837 835 835 834 833 832 831 830 830 830 830 830 830 830 830 829 829 828 828 828 827 826 825 824 823 822 821 821 819 816 815 815 814 813 812 811 810 809 808 806 805 804 802 801 800 799 799 799 799 799 798 797 797 796 796 795 794 793 793 792 791 789 787 785 785 784 783 782 782 782 782 782 783 782 780 780 781 780 780 781 781 781 778
838 837 836 835 834 833 832 831 830 830 829 829 828 828 828 828 828 828 828 827 826 826 826 825 825 824 823 821 819 818 818 816 814 813 812 811 810 808 807 807 806 805 803 801 800 799 798 797 796 796 796 796 795 794 794 793 792 792 791 790 789 789 788 786 784 783 782 781 779 778 778 778 778 778 779 778 777 776 776 775 776 777 776 774 772
838 837 835 834 833 832 831 831 830 829 828 828 827 827 826 826 826 826 826 826 825 825 824 823 823 822 821 820 818 817 815 814 812 811 810 809 808 807 806 805 805 803 802 800 799 798 797 796 795 794 793 793 791 791 790 789 789 788 787 786 785 785 784 783 781 781 780 778 776 775 774 774 774 774 774 774 774 773 772 773 774 773 770 769 768
838 836 835 834 832 831 831 830 829 828 827 827 826 826 825 825 824 824 824 824 824 823 823 822 821 820 819 818 817 816 814 812 811 810 808 807 807 806 805 805 804 802 801 800 799 798 797 795 794 793 792 791 789 788 787 786 785 785 784 783 781 780 780 779 778 778 777 775 773 771 770 770 770 770 770 770 770 769 769 769 769 769 767 766 765
837 836 835 834 832 831 830 829 828 828 827 826 826 825 824 824 823 822 822 821 821 821 820 820 819 818 817 817 816 815 813 812 811 809 808 807 806 805 805 804 803 802 801 800 799 798 797 795 794 793 791 790 788 786 785 784 783 782 780 779 778 776 776 775 775 773 772 771 769 767 766 766 767 767 766 766 766 766 765 765 766 765 763 763 762
837 836 834 833 832 830 829 828 828 827 826 826 825 824 823 822 822 821 820 819 819 818 818 817 817 816 816 816 815 814 813 811 810 809 808 807 806 805 803 802 802 801 801 800 800 799 797 796 795 793 792 790 788 786 784 783 781 780 778 776 775 773 772 771 770 769 768 766 765 764 763 763 763 763 763 762 762 761 761 761 762 761 759 759 757
836 835 834 832 831 830 829 828 827 826 826 825 824 823 823 821 821 820 819 818 817 816 816 816 815 815 815 815 814 813 812 811 810 809 808 807 805 804 803 802 801 801 801 801 800 799 798 797 796 794 792 790 788 786 784 782 780 778 776 774 772 770 768 767 765 764 763 762 761 760 760 760 760 760 759 758 756 755 756 756 757 756 755 754 752
835 835 833 832 831 830 829 828 827 826 825 824 823 823 822 821 820 819 817 817 816 815 814 814 813 813 813 813 812 811 810 809 808 807 806 806 805 804 803 803 802 802 801 800 799 799 798 797 796 794 792 790 788 786 784 782 779 777 775 773 770 768 766 764 762 760 759 758 757 756 756 757 756 755 754 753 751 751 751 751 751 751 749 748 748
835 834 833 832 831 829 829 828 827 826 825 824 823 822 821 820 819 818 817 816 815 814 813 812 811 811 811 810 810 809 808 807 807 805 804 804 803 803 802 802 802 801 800 799 799 798 796 795 794 793 791 789 787 785 783 780 778 776 774 771 769 766 764 762 759 757 756 754 752 752 752 752 750 749 749 749 747 746 747 746 746 746 745 743 743
835 834 833 832 830 829 829 827 826 825 824 823 822 821 820 820 819 817 816 815 814 813 812 811 810 810 809 809 808 807 806 805 804 804 803 802 802 801 801 800 800 800 799 798 797 796 795 793 792 791 790 788 786 783 781 779 777 774 772 770 767 764 762 760 758 755 753 751 749 748 748 749 747 746 746 745 743 741 742 741 741 741 740 739 738
835 834 832 831 830 829 828 827 826 825 824 823 822 821 820 819 818 817 816 815 813 812 811 811 810 809 809 808 807 806 804 803 803 802 802 801 800 799 799 798 798 797 797 796 795 794 793 791 790 788 787 785 784 782 779 777 775 773 770 768 766 763 761 759 757 754 752 750 748 747 747 747 745 743 742 740 738 737 737 736 735 735 735 734 734
834 833 832 831 830 829 828 827 826 825 824 823 821 820 819 818 817 816 815 814 813 811 810 809 809 808 808 807 806 805 804 802 801 801 800 799 798 798 797 796 796 795 794 793 792 791 790 789 787 786 784 782 781 779 777 775 773 770 768 766 764 762 759 757 755 753 751 749 747 746 745 745 743 741 739 736 734 733 732 731 730 730 730 729 729
833 833 832 830 830 829 828 827 826 824 823 822 821 820 819 818 817 816 814 813 812 810 808 807 807 806 806 806 805 804 803 801 800 799 798 797 796 795 795 794 794 793 792 791 790 788 787 786 784 783 781 780 778 776 775 773 771 769 766 764 762 759 757 755 753 752 750 748 746 745 743 742 741 738 736 734 732 730 728 727 726 726 726 725 725
832 832 831 830 829 828 827 826 825 824 823 821 820 819 818 817 816 815 814 812 811 809 807 806 805 804 804 804 803 802 801 800 799 797 796 794 794 793 792 792 791 790 789 788 787 786 785 783 782 780 779 777 776 774 772 771 769 767 765 762 760 758 756 754 752 750 749 747 744 743 741 739 738 736 733 731 730 729 727 725 723 722 722 722 722
831 830 830 829 828 827 826 825 824 823 822 820 819 818 817 816 815 814 813 811 810 808 807 805 804 802 802 801 801 800 799 798 797 796 794 792 791 790 790 789 788 787 787 786 785 784 782 780 779 777 776 775 773 772 770 769 767 765 763 761 758 756 754 752 750 749 747 745 742 740 738 737 735 733 730 728 727 726 725 723 722 720 719 718 718
830 829 829 828 827 826 825 824 823 822 821 819 818 817 816 815 814 813 812 810 809 807 806 804 803 801 800 799 798 798 796 796 795 793 792 790 789 788 787 786 785 785 784 782 781 781 779 778 776 774 773 772 770 769 767 766 764 763 761 759 756 753 751 750 748 746 744 742 740 738 736 734 731 729 727 726 724 723 722 721 719 718 717 716 714
828 828 827 827 826 825 824 823 822 821 819 818 817 816 815 814 813 812 811 809 807 806 804 803 801 800 799 798 797 796 794 793 792 791 790 788 787 786 785 784 783 782 781 779 778 777 776 775 773 772 770 769 767 766 764 763 761 760 758 756 754 751 749 747 745 743 741 739 737 735 733 730 728 726 724 723 721 720 719 717 716 715 714 713 711
827 826 826 825 825 824 823 822 821 819 818 817 816 815 814 813 812 810 809 807 806 804 803 801 800 799 797 796 795 794 792 791 790 788 787 786 785 784 783 782 780 779 778 776 775 774 773 772 770 769 768 766 765 763 761 760 758 756 754 753 751 748 746 744 742 739 737 736 734 732 730 727 724 723 721 719 718 716 715 713 712 711 710 709 708
826 825 825 824 823 823 822 821 820 819 817 816 815 814 813 812 810 809 807 806 804 803 801 800 798 797 795 794 793 792 791 789 787 786 785 784 782 782 781 779 778 776 775 773 772 771 770 769 768 766 765 764 762 760 758 756 754 752 750 748 746 744 742 740 738 735 734 732 730 728 726 724 721 719 717 716 714 712 710 709 707 706 705 705 703
825 824 824 823 822 822 821 820 819 818 817 816 815 813 812 810 809 807 806 804 803 801 800 798 797 795 794 793 791 790 789 787 785 784 783 782 781 780 778 776 775 774 772 771 770 768 767 766 765 763 762 761 759 757 755 753 750 747 745 743 741 739 737 736 734 732 730 728 726 724 722 720 717 715 714 712 710 708 707 705 703 702 701 700 698
824 823 823 822 822 821 820 819 818 817 816 815 814 812 810 809 807 806 804 803 801 800 798 797 795 794 792 791 789 788 786 784 783 782 781 780 779 777 776 774 773 771 770 768 767 766 765 763 761 760 759 757 756 754 752 749 746 743 740 738 736 734 733 731 729 728 726 724 722 720 718 716 713 711 709 708 706 704 702 701 700 698 697 695 694
823 823 822 822 821 820 819 818 817 816 815 814 812 811 809 807 806 804 803 802 800 798 797 795 794 792 791 789 788 786 784 783 781 780 779 778 776 775 773 772 770 769 767 766 764 763 762 760 758 757 756 754 752 750 748 745 742 740 737 735 733 731 729 727 725 724 723 721 718 716 714 712 710 708 706 704 702 701 699 697 696 694 693 691 689
Wind_Speed
29 31 31 31 30 30 29 29 28 27 26 24 24 23 22 22 22 22 21 19 20 20 19 19 18 17 20 19 17 16 16 15 13 13 14 15 14 13 12 11 12 13 13 13 13 12 12 11 11 10 10 10 11 11 11 10 8 7 8 8 7 7 7 8 8 11 14 12 10 11 11 11 11 10 9 9 9 8 9 11 12 14 15 16 16
27 29 29 29 30 30 29 29 28 27 26 25 25 25 24 23 22 22 22 21 21 21 21 21 20 19 19 20 18 17 16 16 15 14 15 16 15 14 14 14 13 13 13 14 13 12 12 13 12 10 10 11 12 13 13 12 10 10 10 10 11 11 11 11 10 11 15 16 14 14 14 13 13 13 12 13 13 13 12 13 14 15 16 16 17
29 30 30 29 29 29 29 29 28 27 27 26 26 26 25 24 24 23 24 23 23 22 22 22 22 22 21 21 20 19 18 18 17 16 17 18 17 16 15 15 15 15 15 14 13 12 13 14 14 12 10 11 13 13 13 13 12 12 12 12 13 13 13 14 14 13 15 18 18 17 17 16 15 15 15 17 18 17 16 15 14 14 14 15 16
22 23 28 30 29 29 28 28 29 28 28 27 27 26 26 26 26 25 25 24 24 24 23 22 22 24 24 24 22 21 21 20 19 19 19 19 19 19 17 17 17 17 17 16 14 13 14 15 15 15 13 13 13 14 13 12 12 12 13 13 13 13 13 14 16 16 16 17 17 17 16 16 17 17 18 19 19 17 16 16 15 14 15 16 17
13 11 18 24 24 23 23 25 27 29 29 28 27 27 26 25 26 27 26 25 25 24 24 24 23 24 25 25 23 21 21 22 22 22 21 20 20 19 19 18 18 18 19 19 17 17 16 16 16 15 15 15 15 15 15 14 14 14 15 15 15 15 14 14 15 16 17 18 17 16 16 16 17 18 17 18 18 16 15 14 14 14 15 17 18
16 14 17 18 14 12 15 20 23 26 27 27 27 27 26 24 24 26 27 26 25 24 25 26 25 25 25 25 24 22 20 20 21 22 23 23 22 21 20 20 20 19 19 19 19 19 19 19 18 16 15 16 16 16 16 16 17 17 17 17 17 17 17 16 15 15 16 17 17 17 17 17 17 18 17 16 17 18 17 16 15 15 16 17 19
13 15 16 15 13 15 21 23 21 21 23 23 24 25 26 25 23 24 26 27 27 26 25 26 27 27 26 26 25 24 23 22 22 22 22 24 24 23 22 22 21 21 20 20 20 20 20 20 19 18 16 16 17 17 17 18 18 19 19 19 19 19 18 18 18 17 17 17 17 18 19 18 18 19 19 17 18 19 18 17 17 18 19 20 20
9 9 11 13 14 20 26 26 22 19 19 20 21 21 22 22 20 20 22 25 28 28 27 28 28 29 29 29 28 27 26 25 25 24 24 25 25 26 25 24 23 23 23 22 21 22 22 21 20 20 18 18 18 18 19 19 20 21 21 21 21 21 20 20 20 20 20 19 20 20 20 20 20 20 20 19 19 19 18 15 18 22 23 22 22
9 9 11 14 16 19 24 24 22 20 20 20 20 20 20 19 17 17 16 19 24 27 28 28 29 30 31 31 30 30 29 28 28 27 27 27 27 28 27 27 26 25 25 25 24 24 23 23 23 23 22 21 21 20 20 21 22 23 23 23 23 23 23 23 23 23 22 21 22 22 21 21 22 22 22 21 21 21 19 17 19 23 24 22 21
13 11 11 12 13 17 19 18 17 18 19 19 18 20 21 21 19 17 14 12 14 20 25 27 27 29 31 32 33 32 32 31 30 29 29 28 28 29 29 29 29 28 27 26 27 27 26 26 25 25 24 24 23 21 21 21 23 25 25 25 26 26 26 25 25 25 24 23 24 24 21 22 25 25 24 25 24 23 22 21 22 24 23 21 18
17 14 11 10 10 10 11 10 11 12 13 14 16 17 20 21 20 18 16 13 11 13 19 25 27 27 28 30 32 33 34 33 32 31 31 30 30 31 31 31 31 30 30 29 29 30 29 29 28 27 26 25 24 23 23 22 23 24 26 27 27 29 29 28 27 27 26 25 25 25 22 23 27 27 26 27 26 25 24 23 22 23 21 16 13
17 14 12 10 9 9 9 8 8 8 8 8 10 12 13 15 16 16 16 16 14 13 15 19 24 27 27 27 29 32 34 35 34 34 33 32 32 32 33 33 33 32 32 32 32 32 31 31 30 29 29 28 27 26 26 26 25 25 26 26 26 28 30 31 31 30 28 27 27 27 26 26 28 29 28 28 27 26 25 23 22 22 20 16 13
16 14 13 12 10 8 9 9 8 7 6 5 6 6 7 8 9 10 11 14 16 17 16 16 18 22 24 24 24 27 30 33 35 36 35 34 34 34 35 35 34 34 34 34 34 34 34 34 33 32 32 31 30 29 28 28 28 27 27 27 27 28 29 30 31 32 33 31 29 29 30 29 29 30 30 29 27 25 25 24 23 22 20 19 20
15 15 14 13 11 9 8 7 7 7 5 4 4 4 3 3 3 5 7 10 13 15 17 18 18 18 20 21 20 21 22 25 29 33 36 37 36 36 36 36 35 35 35 35 35 35 35 35 35 35 34 33 33 32 32 31 31 31 31 32 33 33 32 32 31 31 33 35 34 34 35 34 33 34 34 31 29 27 27 27 26 24 23 23 24
15 14 15 15 12 10 10 10 9 8 7 6 4 4 4 2 1 1 3 6 9 11 14 16 17 18 19 19 19 20 20 20 21 24 29 34 36 37 37 37 37 36 36 36 36 36 35 35 35 35 35 35 35 34 34 34 34 34 35 35 36 36 35 35 33 32 32 34 36 38 39 39 38 38 37 35 32 31 31 28 26 25 24 23 23
16 14 15 15 14 12 10 11 12 11 11 10 9 8 7 6 5 4 4 4 6 8 10 13 15 16 18 19 20 22 23 22 21 19 20 25 32 36 38 38 38 37 37 37 37 37 37 36 36 36 36 36 35 35 35 35 35 35 35 36 36 37 37 36 34 34 34 34 35 36 37 38 38 39 39 37 35 34 31 27 25 25 24 22 22
18 15 14 15 15 14 12 12 13 12 12 13 13 12 11 10 8 7 6 6 6 6 7 9 11 13 15 17 20 22 24 25 24 21 19 20 24 31 35 38 40 40 40 39 38 37 36 37 37 37 38 38 37 36 35 35 35 35 35 35 35 36 37 36 35 35 36 36 36 36 35 36 36 37 38 37 35 34 31 28 28 27 23 19 19
17 15 14 13 13 13 13 13 13 13 13 13 14 15 14 14 13 10 8 7 7 7 7 7 8 10 12 14 16 19 22 23 21 21 21 21 21 25 29 33 36 38 39 39 39 38 38 38 38 37 38 39 39 38 37 36 36 36 35 35 34 34 35 35 34 34 35 35 34 35 35 35 35 35 35 34 32 32 31 31 30 28 22 19 21
14 14 13 13 13 13 13 13 13 13 14 14 15 15 14 14 15 13 10 8 9 8 7 7 8 9 10 11 13 15 17 18 17 17 19 19 20 22 24 27 29 31 32 33 33 34 36 37 38 39 40 40 40 40 39 38 37 37 35 33 31 32 34 34 33 33 33 33 33 34 34 34 35 34 34 33 31 30 32 32 31 29 26 25 25
12 12 11 11 12 13 14 14 14 14 15 16 15 15 15 14 14 14 12 9 9 10 8 7 8 9 9 11 13 14 15 15 14 14 16 16 18 20 22 24 26 27 27 28 29 30 31 33 34 36 38 39 40 40 40 40 39 38 36 33 32 34 34 31 29 30 30 31 32 33 33 33 33 33 33 33 32 31 31 31 30 30 29 29 28
10 11 10 10 11 13 14 15 15 15 16 17 16 15 16 16 15 12 11 10 10 10 10 9 9 10 10 11 12 13 14 15 14 13 14 15 16 18 20 23 24 25 26 27 28 30 31 32 32 33 34 36 37 38 40 40 40 40 39 37 38 39 36 32 31 31 30 31 31 31 32 32 32 32 32 33 32 32 32 31 29 29 28 28 29
11 11 11 9 10 13 15 15 16 16 16 17 18 17 16 16 16 12 8 9 12 13 13 13 13 13 13 12 13 14 15 15 15 14 14 15 16 18 19 20 21 22 23 25 27 29 30 30 31 31 31 32 33 34 35 37 38 39 41 41 41 40 38 36 35 33 32 31 30 29 30 30 31 32 32 33 33 32 32 32 31 31 31 30 30
10 11 11 10 11 13 14 14 15 15 16 18 19 17 16 15 16 14 11 10 13 15 17 17 17 17 17 16 16 16 17 16 15 14 14 15 16 17 19 20 19 19 21 24 26 27 28 28 28 27 26 27 29 30 31 32 33 35 37 37 37 37 36 36 35 35 33 31 29 28 29 30 30 32 33 33 34 34 33 33 33 32 32 31 31
10 10 11 11 12 11 11 13 13 13 15 17 16 15 15 15 14 15 14 13 15 17 17 17 17 17 19 19 19 19 19 19 17 16 16 16 16 15 16 17 18 19 21 23 24 24 25 26 26 26 26 26 26 27 28 29 30 32 33 34 34 34 34 34 34 33 32 29 28 28 30 30 31 32 34 35 35 35 34 33 32 32 31 31 31
11 11 11 12 12 11 11 12 11 12 14 15 14 13 14 15 14 15 15 15 17 18 18 16 16 17 18 20 21 21 21 21 20 18 18 17 17 15 15 16 16 17 18 20 21 21 22 23 24 24 26 27 28 28 28 28 27 27 28 28 29 29 29 29 29 29 28 28 28 29 31 32 32 34 35 36 36 35 33 32 32 32 31 31 32
11 11 12 12 12 12 12 11 10 11 13 12 11 11 13 15 16 16 17 18 19 20 19 18 18 19 20 20 21 22 24 24 23 21 20 19 18 18 18 19 19 19 19 19 19 19 20 20 20 20 21 23 25 27 29 30 29 30 29 28 27 26 25 25 25 26 28 29 30 31 33 33 33 34 34 35 35 34 33 33 33 33 33 33 34
12 12 13 13 13 13 13 12 11 10 10 10 10 11 12 15 16 17 18 19 20 20 21 20 20 20 21 22 22 24 26 26 24 24 24 24 24 23 22 22 22 22 23 23 23 23 22 22 21 20 19 20 22 24 26 27 28 30 32 32 32 32 31 31 30 31 32 33 33 33 34 34 33 32 32 32 33 35 36 35 34 35 35 34 34
12 13 14 14 14 14 15 14 13 12 11 9 10 12 14 16 17 16 16 18 20 21 20 20 20 20 20 22 23 25 28 28 26 25 27 29 28 26 24 24 24 23 23 25 27 28 28 27 26 24 23 23 24 25 25 26 26 26 28 28 29 30 30 30 32 34 36 37 36 35 35 34 33 33 32 31 33 36 37 35 34 35 34 31 30
12 13 13 14 15 15 16 16 16 14 13 11 11 12 13 16 17 17 16 14 15 17 18 18 19 20 20 22 23 24 28 30 28 28 28 28 26 25 25 24 24 23 22 22 25 27 29 29 27 26 25 24 25 25 26 26 25 25 25 25 26 26 25 26 29 32 34 34 34 34 34 33 33 33 32 32 34 36 35 33 33 33 31 29 29
12 12 13 14 15 16 16 17 17 14 11 11 11 11 12 13 14 14 14 13 12 13 15 17 18 20 23 24 23 23 25 28 28 27 26 25 24 23 22 20 20 22 22 21 22 24 25 26 25 23 22 22 23 24 24 24 24 24 24 24 25 25 25 27 29 30 31 31 32 32 32 31 31 31 30 31 33 34 34 34 34 32 30 28 30
12 13 14 15 16 16 16 17 18 15 12 11 12 12 13 13 12 11 11 12 13 15 16 17 19 21 23 25 24 22 22 23 25 27 27 26 25 22 20 18 19 21 22 22 22 22 22 23 23 22 21 21 22 23 23 23 24 25 25 25 25 25 26 28 30 30 30 29 29 30 31 30 30 30 29 30 32 33 34 33 31 30 31 31 31
13 13 14 15 16 16 16 17 17 16 14 13 13 14 14 14 12 11 11 13 15 17 19 20 23 23 21 19 21 23 23 25 27 29 28 26 23 20 18 18 19 21 22 22 21 22 21 21 21 21 20 20 22 23 23 24 24 25 25 24 24 25 26 27 29 30 30 29 27 28 30 31 31 31 30 30 31 32 32 30 28 30 32 33 32
14 14 14 15 16 16 15 15 14 13 12 12 13 13 12 12 13 14 14 15 17 19 21 22 23 22 19 17 20 24 25 26 26 26 23 21 19 17 17 18 19 21 22 22 21 21 21 21 20 20 20 20 21 23 24 24 25 25 25 25 26 27 27 27 27 27 28 28 28 27 29 30 31 31 31 31 31 31 31 30 29 31 32 30 30
14 14 14 15 15 13 11 10 10 10 10 11 11 11 12 13 15 17 18 18 19 20 22 22 22 21 20 19 20 21 20 20 21 20 20 19 18 17 18 20 21 22 22 21 21 21 21 21 20 20 21 21 21 22 23 24 25 26 26 26 27 27 27 28 28 28 28 29 29 29 29 30 30 30 30 30 29 29 30 30 30 30 30 29 29
14 14 14 14 14 12 11 11 10 10 10 10 11 12 14 16 18 18 18 18 18 19 21 22 22 22 22 21 19 18 18 20 22 22 21 21 21 21 22 23 23 22 21 19 19 19 20 21 21 21 22 22 22 22 22 23 23 24 25 26 27 28 28 28 28 29 30 30 30 30 29 29 29 29 29 29 29 29 29 30 30 31 32 31 31
15 15 14 14 13 12 12 12 12 12 12 11 11 13 15 16 17 18 19 20 20 20 21 22 23 23 23 20 19 19 22 24 24 23 22 22 23 24 23 22 21 20 19 18 18 19 20 22 22 24 24 25 25 25 25 25 25 25 24 25 25 26 27 29 30 30 30 30 31 32 30 29 29 29 29 31 33 33 31 31 31 32 34 34 34
13 14 14 14 14 14 13 12 12 12 13 13 13 15 16 16 18 19 20 21 21 22 22 23 23 23 22 21 21 22 24 25 25 24 23 23 23 23 21 19 19 19 19 19 19 20 21 21 22 24 26 26 27 27 26 26 26 26 26 26 25 24 24 26 28 30 31 32 32 31 29 28 30 32 32 33 33 33 31 31 31 33 37 39 36
12 13 13 14 15 15 15 15 14 14 14 15 15 16 16 17 18 19 20 21 22 22 23 23 23 22 22 22 22 23 24 25 26 25 24 23 22 21 19 20 21 21 20 20 21 22 22 22 23 24 26 26 27 26 26 26 25 25 26 26 26 26 26 25 25 26 29 32 34 31 28 27 31 32 31 31 33 33 31 30 30 31 35 37 35
12 12 13 14 15 15 16 16 17 16 17 17 16 17 18 19 19 20 21 21 21 21 22 22 22 22 23 24 25 25 24 23 22 22 22 21 20 19 19 21 23 23 22 22 23 23 23 24 24 24 24 25 26 26 26 26 25 24 24 25 26 27 27 26 25 26 25 26 27 25 24 27 32 33 30 31 35 35 31 30 30 31 32 34 34
11 12 13 14 15 15 15 15 16 17 17 17 18 19 20 20 20 20 20 21 21 21 21 22 22 23 25 26 26 26 24 21 19 19 19 19 18 18 19 21 23 24 24 24 23 23 24 25 25 25 25 26 26 26 25 25 25 24 24 23 23 24 24 24 25 26 26 26 26 22 19 23 29 32 32 33 36 36 32 30 31 31 32 34 34
10 11 12 13 13 14 14 14 15 15 16 17 18 19 20 21 20 20 21 22 22 22 22 23 23 24 25 25 25 24 22 20 19 19 18 17 18 19 20 22 24 25 25 25 25 25 25 25 26 27 27 26 26 24 24 24 25 25 25 24 23 23 23 23 22 23 25 26 27 25 23 23 25 27 29 32 34 36 35 32 31 31 32 33 33
10 11 12 13 13 14 15 15 15 15 16 17 18 19 20 21 21 22 22 22 22 22 23 23 24 24 25 24 23 22 21 20 20 20 19 18 19 21 22 24 26 26 25 25 25 26 26 26 26 27 27 26 25 24 24 24 24 24 25 25 25 24 24 24 23 24 25 26 27 27 27 28 28 28 29 30 30 31 32 32 31 32 32 32 32
9 11 12 13 14 14 15 16 17 17 17 17 18 19 19 20 21 21 22 22 23 23 24 24 25 25 25 24 23 21 22 22 22 22 21 21 22 23 25 26 26 25 25 26 26 26 26 26 26 26 26 26 25 24 24 24 24 24 25 25 24 24 25 26 26 25 24 25 27 28 29 30 31 32 32 32 30 28 28 28 29 29 29 30 31
10 10 10 12 14 15 16 16 17 17 17 17 17 17 18 19 20 21 21 22 23 23 23 24 25 25 26 25 23 23 23 23 23 23 22 23 24 25 26 26 25 25 25 27 27 26 26 26 27 27 26 25 24 24 24 24 24 24 24 24 25 27 28 28 28 27 26 27 29 31 31 32 33 33 34 35 33 30 28 28 29 29 29 30 31
11 10 10 11 13 14 15 15 15 15 15 15 16 16 16 17 18 19 20 21 22 22 23 24 25 25 25 25 24 23 22 22 22 22 23 24 25 26 26 25 25 25 26 27 27 27 26 26 26 26 25 24 24 24 24 24 22 21 21 24 26 28 29 28 28 28 28 29 31 32 33 34 35 35 36 37 36 33 31 31 31 31 30 30 30
10 9 9 10 11 12 13 13 14 14 14 14 15 15 15 16 17 18 19 19 20 21 22 23 24 24 23 23 22 22 22 22 23 23 24 25 26 26 26 26 26 26 27 27 27 26 26 26 25 24 24 24 24 23 23 23 22 21 22 24 26 28 29 28 27 27 27 27 28 30 32 34 35 36 37 36 36 35 34 33 33 32 31 31 31
9 9 9 9 10 11 12 12 13 13 14 14 14 15 15 16 17 18 19 19 20 21 21 21 21 22 22 22 22 22 22 22 22 23 24 25 26 26 26 27 27 28 28 28 26 25 25 24 23 22 22 22 23 23 24 26 27 27 27 28 29 30 30 29 28 27 27 26 26 28 30 32 34 36 36 35 34 33 33 33 34 33 33 32 31
9 9 8 8 9 10 11 11 12 13 14 13 14 14 15 16 17 18 19 20 20 20 21 21 21 21 21 21 21 21 21 22 22 23 24 26 26 26 27 27 27 28 28 27 25 24 23 21 20 21 21 22 23 25 27 29 31 32 32 31 31 31 31 30 29 27 26 25 25 26 28 30 33 34 35 35 33 32 31 31 32 32 32 31 31
7 8 8 9 9 9 10 11 13 14 14 14 15 16 16 17 18 19 19 19 19 19 20 21 21 21 21 21 21 21 22 23 24 24 25 25 26 26 26 26 27 27 27 26 25 23 22 21 21 22 23 24 25 27 29 32 33 33 32 31 30 29 29 29 28 26 25 25 26 27 28 30 32 33 34 35 34 33 32 31 31 32 32 31 31
8 8 8 8 9 10 12 13 14 14 14 15 16 18 19 19 19 19 19 19 19 19 20 21 21 21 21 21 21 22 22 23 23 23 24 24 25 25 26 26 26 26 26 25 25 24 23 23 23 24 25 26 27 29 31 32 33 32 30 28 27 27 27 27 26 25 24 24 26 26 28 30 31 32 33 33 33 33 32 32 32 33 33 32 31
8 8 8 8 9 11 13 14 14 15 15 15 17 18 19 19 19 19 19 19 19 20 20 21 21 21 21 21 21 21 22 22 22 23 23 24 25 25 25 24 25 25 25 25 25 25 24 24 24 25 26 27 29 30 32 32 31 29 27 25 24 25 25 26 25 23 22 23 23 24 25 27 29 29 30 31 31 31 31 32 33 33 32 31 31
Wind_Direction
199 202 204 205 207 208 209 210 212 213 214 212 211 211 211 213 213 214 217 215 208 207 211 214 213 212 212 214 215 217 221 225 226 226 225 228 232 233 231 232 239 240 242 250 256 253 249 256 268 274 276 279 281 283 285 291 292 280 276 271 258 264 278 277 277 285 293 297 298 306 317 321 319 320 324 330 332 317 297 295 297 297 305 314 312
202 205 206 206 208 210 211 211 211 213 215 217 217 216 216 216 214 214 218 219 216 213 215 217 217 216 215 214 215 218 223 226 228 228 230 232 235 236 234 233 238 243 248 253 255 254 249 253 267 273 271 275 280 281 282 281 280 275 270 268 269 270 271 271 271 277 287 293 300 307 312 317 319 317 317 320 324 321 312 308 304 299 301 306 305
204 206 207 208 211 212 213 212 212 212 214 217 220 220 221 220 216 215 218 220 220 221 222 221 220 220 220 218 218 222 224 225 228 231 234 237 239 241 239 234 236 243 251 254 254 254 252 253 260 266 269 275 277 281 283 279 275 273 272 273 278 281 280 277 270 267 279 291 299 306 308 310 313 317 320 320 319 316 312 312 311 307 305 306 304
203 205 205 207 210 210 211 212 212 212 213 216 220 222 225 225 222 221 221 221 222 223 224 224 224 224 223 222 223 226 226 226 228 233 237 240 241 245 245 241 239 241 246 251 252 254 255 255 257 258 263 269 273 279 283 281 278 277 277 277 281 287 291 287 279 272 274 283 293 301 305 305 307 311 316 319 320 317 314 314 312 307 304 304 304
202 213 211 209 207 204 203 207 210 212 213 215 217 221 227 230 228 226 225 223 224 224 225 226 227 226 224 224 225 225 226 226 227 231 237 240 242 245 247 248 248 247 247 248 251 256 258 261 264 262 261 264 268 274 279 280 280 280 281 281 283 286 290 292 289 281 274 275 283 293 297 299 301 306 312 318 319 318 315 314 310 303 299 298 300
209 222 225 222 224 219 207 205 207 209 212 215 217 221 225 231 233 231 229 228 227 227 227 227 229 229 227 226 227 228 227 226 226 231 236 239 241 243 246 249 251 254 254 250 251 256 260 263 267 265 261 261 265 269 274 278 279 280 279 280 283 286 286 287 288 284 276 274 280 287 293 295 296 300 306 310 310 309 310 309 306 303 302 300 298
211 224 228 227 238 240 227 217 208 206 209 213 218 221 224 227 231 231 232 231 230 231 230 229 229 230 231 231 233 234 233 230 230 232 235 238 240 242 245 248 251 254 256 256 254 255 258 261 263 263 261 261 264 268 271 273 276 277 276 276 278 280 281 282 282 282 280 279 282 287 291 293 292 293 297 300 299 297 299 301 302 305 309 310 308
188 217 223 216 223 234 235 229 218 210 209 210 213 216 217 220 223 226 230 232 232 232 233 232 231 231 232 234 236 238 237 234 233 233 235 237 239 242 244 246 250 253 255 257 258 257 258 258 259 260 261 262 264 267 268 270 270 270 270 272 272 272 273 274 276 277 279 279 282 283 284 286 286 287 290 292 291 290 291 293 297 303 308 312 313
163 190 207 208 214 226 233 231 221 214 214 213 213 214 214 214 215 218 223 230 233 232 232 234 233 232 233 234 236 237 237 237 236 236 237 237 238 241 243 245 248 252 254 256 257 258 260 260 259 260 260 263 266 266 267 269 270 270 271 271 270 269 268 269 270 270 271 272 274 275 276 277 278 280 282 283 284 287 289 290 294 299 303 307 309
120 143 168 186 199 210 219 220 215 213 217 219 222 224 222 220 222 223 224 231 238 237 235 234 234 234 235 235 235 236 236 238 239 240 241 241 241 241 243 245 247 249 253 255 256 258 260 261 261 261 262 263 266 266 267 269 271 272 273 274 272 270 267 266 266 264 264 264 266 268 268 269 272 275 276 279 282 282 284 288 292 297 301 302 303
99 113 129 145 160 177 191 197 199 202 208 214 220 224 224 227 232 233 232 236 246 245 241 238 236 236 236 236 236 236 237 239 241 242 244 245 245 244 244 246 247 248 250 252 255 257 259 260 261 262 262 262 263 264 266 268 271 272 273 273 272 270 267 264 263 263 261 259 262 264 262 264 271 275 275 278 281 280 282 286 288 292 294 291 290
84 93 101 109 122 131 137 146 160 169 177 192 204 211 218 227 235 239 238 241 246 247 246 242 238 237 236 237 238 237 238 240 242 243 245 246 247 246 246 247 248 248 249 250 253 256 258 260 261 261 262 262 262 264 265 266 269 271 272 273 273 271 269 265 262 262 261 259 259 261 261 263 270 275 276 278 281 282 283 283 283 284 283 276 273
73 74 76 75 80 98 112 114 110 114 132 155 177 189 201 217 232 242 242 242 244 248 249 247 243 239 236 236 238 239 241 243 243 244 246 248 248 247 247 247 248 249 251 252 253 255 256 258 259 260 261 261 262 263 264 265 266 267 269 272 274 275 273 269 266 263 262 261 259 261 264 266 268 274 279 281 280 281 282 282 282 279 274 272 276
71 66 65 61 56 57 64 75 76 71 73 90 111 128 145 176 217 240 241 238 239 242 245 246 247 245 241 238 237 238 241 244 246 247 248 249 250 250 248 248 248 250 253 255 256 257 257 258 258 259 261 261 261 261 261 262 264 266 268 271 273 276 276 275 273 268 263 260 258 260 265 267 268 274 280 281 278 279 281 281 282 280 276 278 280
68 63 60 57 54 53 48 45 44 42 36 34 39 48 53 55 45 291 268 255 248 245 247 248 249 248 248 248 246 243 242 243 246 248 249 250 251 250 250 248 248 249 253 256 258 259 260 260 259 260 262 262 263 263 262 263 264 266 268 271 273 275 276 276 276 275 272 267 263 263 266 268 270 274 279 279 278 281 283 281 280 280 280 280 280
53 54 54 51 50 53 50 38 33 32 31 28 26 22 13 4 355 337 321 303 281 269 264 261 259 254 251 253 255 255 252 250 250 250 252 253 251 249 249 248 247 248 250 253 256 258 261 261 261 261 263 265 266 266 266 265 265 266 267 270 272 273 273 275 275 276 277 276 274 272 272 273 274 275 277 278 278 282 284 280 278 276 275 278 279
40 44 46 44 43 45 42 33 27 26 25 23 22 21 15 7 358 342 329 325 316 303 293 283 276 269 261 256 258 260 259 257 257 256 256 256 251 247 246 248 248 249 250 252 253 256 258 260 261 262 263 265 267 269 269 267 265 265 265 267 268 269 271 274 275 275 275 275 275 276 277 278 278 276 276 276 276 280 278 274 276 275 270 270 273
31 32 34 34 36 38 36 31 28 25 22 16 11 8 6 7 6 358 343 336 330 319 309 302 295 289 280 271 267 267 265 264 266 265 262 261 259 252 248 248 249 250 251 253 254 255 257 259 260 260 262 264 266 268 269 267 265 264 264 263 263 265 268 273 274 275 276 275 275 275 276 278 278 277 277 276 275 275 271 270 275 273 264 259 262
23 18 20 21 24 27 27 24 22 22 19 14 9 3 358 358 360 359 353 345 342 337 323 310 307 305 300 291 284 279 277 276 277 275 271 270 269 264 256 251 250 251 253 255 256 257 259 260 259 259 259 262 264 265 267 266 264 263 263 262 261 263 268 272 274 275 277 277 278 279 279 280 280 279 279 277 275 271 267 269 272 268 260 257 258
14 7 5 5 6 12 18 20 18 17 13 10 9 9 5 359 353 353 355 353 348 346 343 333 323 318 312 303 294 289 290 292 287 282 282 281 279 276 267 259 258 259 260 262 264 265 265 265 264 263 262 262 262 263 264 264 263 263 264 262 262 266 270 273 274 276 277 278 279 280 281 282 282 280 279 277 274 270 267 267 268 267 263 260 258
4 355 354 353 352 358 7 12 12 10 9 9 6 4 6 7 1 354 356 5 7 3 360 357 351 344 336 322 309 301 299 299 294 286 285 286 286 285 279 273 272 273 273 273 273 272 271 271 271 271 270 267 265 264 263 263 263 263 263 263 265 270 273 274 276 277 277 276 277 277 277 278 278 277 276 275 274 272 271 270 271 272 269 264 261
3 358 1 359 351 350 352 358 3 3 4 4 1 358 2 9 10 4 2 15 24 24 19 14 9 3 353 335 320 316 313 306 299 291 288 288 290 290 288 286 285 284 281 281 280 279 278 278 277 278 277 274 271 269 268 268 266 265 265 267 270 273 275 275 277 277 276 276 276 275 275 275 275 275 274 273 273 273 274 275 277 278 277 275 271
1 4 8 3 353 347 344 347 353 355 356 358 358 3 11 15 16 18 20 22 24 21 17 13 10 6 357 341 329 328 329 323 314 308 303 301 300 300 298 296 295 293 289 286 284 283 282 282 283 283 280 276 274 272 271 271 269 268 269 271 273 273 274 274 276 276 277 277 276 275 274 274 274 273 273 272 273 274 274 276 277 278 278 278 277
347 351 354 352 350 346 339 339 341 342 347 352 357 7 16 19 22 23 20 18 15 10 6 4 2 359 353 344 339 340 341 338 331 324 319 312 307 309 311 307 302 297 293 288 285 284 284 285 286 286 282 277 274 272 272 272 271 270 270 271 271 271 270 271 273 275 276 275 273 272 272 271 270 270 270 272 274 275 275 274 274 273 273 274 275
334 338 340 341 345 344 332 327 329 331 337 345 353 360 4 7 11 11 7 5 2 358 356 354 351 349 345 340 338 338 339 339 337 335 333 324 312 308 313 318 317 310 302 295 291 291 292 293 293 292 288 283 278 274 274 275 275 275 273 271 270 269 268 268 269 270 270 270 270 270 270 270 269 270 272 274 274 274 272 271 271 270 269 269 269
333 333 334 332 335 339 333 323 318 322 331 339 347 352 354 356 357 358 358 358 356 353 350 344 340 339 339 337 335 334 333 333 334 337 342 340 330 321 317 317 318 316 313 309 305 300 297 297 297 296 293 289 284 279 277 276 276 276 275 273 273 273 271 269 269 269 269 269 270 270 271 272 273 274 274 273 270 269 268 267 266 265 264 262 262
336 331 332 331 329 332 334 327 311 307 321 336 340 339 343 347 350 352 352 352 350 347 346 343 338 334 331 330 331 330 329 330 333 337 340 338 336 333 330 326 322 317 313 311 310 307 304 302 301 298 297 294 290 286 283 280 277 274 273 273 273 273 273 272 270 270 269 269 268 269 271 273 274 273 270 267 265 265 265 263 262 262 262 260 258
334 330 328 327 326 328 332 330 318 304 304 315 324 327 332 335 336 338 341 342 340 338 340 344 345 340 334 330 329 328 326 326 330 334 334 331 329 329 330 329 328 324 318 312 308 306 305 305 304 302 301 299 297 295 294 291 286 280 276 274 273 272 273 272 269 267 266 265 264 265 266 268 268 268 267 264 263 263 263 261 260 261 263 263 260
325 328 325 323 324 326 328 331 328 311 294 293 304 312 318 322 320 319 323 330 334 336 342 347 347 344 338 333 330 327 322 321 324 328 328 326 325 325 325 325 325 325 323 317 309 305 304 306 306 305 303 301 300 300 299 298 294 287 281 277 274 272 271 268 265 264 265 263 262 262 263 264 265 265 264 261 260 261 261 260 260 261 262 262 261
322 324 326 325 325 325 327 332 334 319 293 291 303 306 310 316 315 314 321 326 326 328 333 336 336 335 332 328 325 321 317 318 324 331 331 329 327 326 325 324 324 324 324 322 317 312 308 307 306 304 301 298 296 295 295 294 291 288 284 280 275 271 269 266 264 264 265 263 262 262 264 264 264 263 260 257 258 259 259 258 258 258 257 256 258
335 328 325 321 320 322 324 328 331 323 303 298 307 307 310 318 318 315 320 321 314 311 314 317 319 322 324 325 324 322 322 325 330 333 332 331 332 331 328 327 328 328 326 325 323 318 313 307 303 301 298 293 289 288 288 286 283 282 280 278 274 270 268 267 267 266 264 263 263 264 264 263 262 262 259 257 257 259 258 258 258 256 254 253 253
348 338 330 322 317 317 319 322 325 319 304 301 310 314 316 323 324 316 308 304 303 306 311 315 318 321 324 329 332 332 332 332 331 329 327 328 331 333 331 330 332 333 334 333 330 327 324 316 308 304 299 291 287 286 283 280 278 276 273 271 270 269 268 269 271 269 265 264 265 265 265 264 262 261 260 258 257 258 258 259 258 256 255 254 253
355 346 339 332 323 317 316 321 327 324 313 310 317 322 324 329 329 323 314 307 306 310 312 316 322 327 330 332 336 337 335 333 331 331 332 335 339 340 337 337 339 340 342 342 337 331 329 324 317 313 307 300 295 292 287 281 278 275 271 268 268 269 269 271 272 270 267 266 266 265 265 264 261 259 259 257 256 257 258 258 258 257 256 255 256
358 353 348 344 337 330 325 326 330 331 328 324 321 319 320 322 323 324 321 318 317 318 318 319 324 332 336 337 339 342 344 344 345 346 347 350 352 349 343 343 345 347 349 350 345 336 330 327 324 323 321 316 310 305 299 292 285 278 273 270 269 269 269 268 266 266 267 268 267 265 264 262 259 257 256 257 257 258 258 258 258 258 257 257 257
356 356 355 353 350 345 338 332 325 321 320 321 319 317 315 315 317 319 320 321 321 322 322 323 325 329 334 338 339 339 340 343 346 348 349 351 352 351 349 349 351 354 357 358 354 347 343 341 339 338 337 335 331 327 322 315 307 297 288 280 274 270 267 265 263 265 266 265 263 263 264 262 259 257 256 257 257 257 256 256 257 257 257 257 257
352 356 359 1 1 357 349 341 333 325 319 317 316 316 316 315 316 317 318 320 320 319 319 320 321 324 328 331 330 328 330 333 336 339 343 346 349 353 357 359 359 358 358 357 354 348 344 343 340 337 336 335 333 331 329 327 323 319 313 304 294 283 274 268 265 264 264 262 261 261 261 261 261 260 259 259 258 256 254 254 255 256 257 258 258
353 354 353 352 354 357 355 348 342 337 331 326 321 318 317 316 317 318 319 320 319 317 316 316 318 320 322 324 324 324 326 327 328 330 335 340 346 354 0 2 360 356 353 351 348 344 340 338 334 330 328 327 325 325 324 322 321 320 320 318 315 308 297 287 277 270 264 261 261 260 258 258 259 260 258 257 256 255 253 251 252 254 257 259 259
347 345 346 345 345 347 347 344 341 340 338 336 334 331 329 327 325 324 323 322 320 318 316 316 316 316 317 319 321 323 324 324 324 327 331 337 341 346 349 350 350 350 347 343 340 337 335 333 331 327 325 323 321 320 319 318 317 317 317 317 316 314 312 309 302 289 275 265 260 256 253 255 258 257 254 255 257 257 255 251 249 250 254 258 259
342 338 340 343 342 342 341 337 336 336 336 336 335 334 333 331 329 327 325 323 321 319 317 316 315 314 315 317 319 320 322 323 325 328 331 335 336 337 338 339 341 341 338 335 333 331 330 329 329 328 325 323 321 319 316 315 315 315 315 316 315 313 312 312 312 308 300 288 276 263 252 253 259 260 257 256 259 259 256 252 250 249 251 256 258
343 337 336 338 337 334 332 330 328 329 330 330 329 329 329 328 328 326 324 322 320 318 316 314 313 312 314 317 317 317 317 319 321 323 325 327 329 331 334 337 337 336 333 330 328 328 327 326 326 325 323 322 320 316 314 313 314 313 313 313 312 310 309 309 309 307 306 304 301 293 275 263 264 265 262 259 258 258 256 254 252 251 252 255 258
344 340 338 335 331 327 327 325 322 321 323 324 323 323 323 324 324 323 321 318 316 314 312 310 309 311 314 316 315 312 311 312 314 316 318 321 324 328 332 334 333 331 328 325 325 324 324 323 322 322 322 321 319 315 312 311 312 311 311 311 310 308 307 308 308 305 301 298 298 298 293 283 277 276 273 268 264 262 259 257 256 256 256 258 260
346 341 334 329 325 323 322 320 318 317 318 319 318 317 316 316 316 316 315 314 312 311 309 308 308 310 313 315 312 308 307 308 310 312 314 317 320 324 327 327 325 323 321 320 321 321 320 319 319 319 318 318 317 314 311 311 311 309 308 308 308 308 307 306 305 304 302 298 295 292 290 286 284 284 284 282 278 271 264 259 257 256 256 257 259
342 336 329 323 319 316 315 315 315 315 315 314 313 311 309 307 308 309 308 308 309 308 307 306 307 308 311 312 309 304 304 306 307 308 310 314 317 319 320 319 318 317 317 317 318 318 317 317 316 316 314 313 312 311 309 309 309 307 306 305 304 303 303 303 302 301 301 298 294 291 287 285 283 283 284 285 286 283 275 266 260 256 255 257 259
341 336 327 318 311 307 308 308 309 309 311 310 308 306 306 305 305 305 304 304 304 304 303 303 305 306 308 307 305 302 303 305 306 306 309 313 315 315 315 314 313 313 315 316 316 316 316 314 313 312 311 309 308 307 306 306 306 304 303 301 301 301 300 299 298 297 295 293 291 289 288 286 284 283 282 283 284 286 284 278 272 266 262 260 259
336 329 319 310 303 300 299 301 303 306 310 311 308 307 308 307 306 305 303 302 302 301 301 302 304 305 304 303 302 303 304 305 306 307 309 311 312 312 312 312 312 313 314 315 315 315 315 313 312 310 308 306 305 305 305 305 304 302 299 296 296 298 299 298 296 294 293 291 289 287 287 286 285 283 281 280 281 282 282 279 276 273 269 264 261
330 327 318 307 297 294 295 300 305 308 311 312 311 310 310 308 306 304 302 300 300 300 300 301 302 303 303 302 302 303 304 304 305 307 308 309 310 311 311 311 311 312 313 314 314 314 313 312 311 309 306 304 303 304 303 302 300 298 295 293 293 296 298 297 293 290 288 287 286 284 283 283 283 282 281 280 280 280 278 276 274 272 270 268 266
329 323 312 301 296 300 304 307 309 312 313 314 315 314 313 310 307 304 302 301 300 299 299 300 301 301 301 301 301 302 303 303 305 307 308 309 310 309 309 309 311 313 313 313 313 314 314 313 312 309 305 302 301 301 301 302 301 299 296 293 292 295 296 294 289 285 283 283 282 280 279 278 278 279 279 279 278 278 276 275 274 273 271 270 269
331 321 312 309 311 315 320 323 324 326 326 323 317 315 315 314 311 309 308 308 306 304 303 303 302 301 301 301 300 301 302 303 306 307 308 309 309 308 308 309 311 312 313 313 313 314 314 313 310 306 302 300 301 301 302 303 303 302 299 295 291 290 291 289 285 283 282 282 280 278 276 274 274 274 276 276 276 275 275 275 275 274 273 273 271
341 331 331 332 328 325 329 335 335 332 331 327 322 319 319 318 316 314 312 310 308 307 307 306 306 305 304 303 303 302 302 304 306 307 308 309 308 308 308 309 310 311 310 310 310 310 310 308 305 302 301 302 302 303 304 305 303 301 299 296 292 288 285 284 282 280 279 279 278 277 276 274 273 272 272 272 272 273 273 273 273 273 273 273 272
349 340 335 332 332 335 338 337 333 330 329 327 323 321 320 319 317 315 312 309 308 308 307 307 307 307 306 305 304 304 303 304 305 306 307 308 307 307 307 307 308 308 308 307 307 307 306 304 302 301 302 303 304 304 305 304 302 299 297 295 292 288 286 284 282 278 277 277 277 276 276 276 275 274 272 271 270 271 270 270 271 271 270 270 269
353 346 335 330 336 343 342 336 331 329 327 324 322 322 321 319 316 313 309 307 307 307 308 308 307 306 305 304 303 302 303 304 304 305 306 307 307 307 307 307 306 307 307 306 306 306 305 303 302 301 302 303 304 304 303 301 299 296 295 294 293 292 290 287 283 278 276 276 276 276 277 277 276 275 273 272 271 270 269 268 268 268 268 268 268